Погода в Диевом-Городище

Россия / Ярославская область     57°38′33″N   40°11′44″E
темп.,
°C
ветер,
м/с
пор.,
м/с
влажн.,
%
обл.,
%
осадки,
мм/ч
давл.,
гПа
погр.,
м
20 апреля, вт
вт2000:00+2в5126463 0.0 1029405
03:00+1в5126815 0.0 1029383
06:000в5126669 0.0 1028410
09:00+5вюв7114828 0.0 1028728
12:00+9вюв81044100 0.0 10261332
15:00+10вюв81143100 0.0 10241622
18:00+9вюв71250100 0.0 10221286
21:00+7в7134735 0.0 1021752
21 апреля, ср
ср2100:00+4в7155184 0.0 1018624
03:00+4в81652100 0.0 1014789
06:000в91997100 1.9 1010876
09:00+2вюв101895100 4.4 1008859
12:00+4вюв101990100 0.0 1005829
15:00+5юв91692100 0.3 10041113
18:00+4ю71283100 0.9 10051100
21:00+3ю71288100 1.1 1007816
22 апреля, чт
чт2200:00+3ююз71290100 0.1 1009779
03:00+3ююз61197100 0.3 1010904
06:00+2юз61197100 0.2 1012647
09:00+4ююз5993100 0.5 1014667
12:00+9юз5768100 0.3 10151115
15:00+11ююз675896 0.5 10151500
18:00+10ююз476883 0.1 1016470
21:00+6ю49885 0.1 1018194
23 апреля, пт
пт2300:00+4ю37904 0.0 1018140
03:00+4ю36915 0.0 1018100
06:00+4ююв37912 0.0 1018158
09:00+10ю69690 0.0 1018619
12:00+13ююв68522 0.0 10171268
15:00+16ююв684816 0.0 10161726
18:00+15ююв585732 0.1 1015347
21:00+11юв5117385 0.6 1014259
24 апреля, сб
сб2400:00+9юв51287100 1.4 1013279
03:00+8юв511915 1.7 1011248
06:00+8юв5119032 0.0 1010265
09:00+13ююв7116978 0.1 1009678
12:00+16ююв9124812 0.8 10072147
15:00+14ююв6115693 1.2 1006646
18:00+12ююз61172100 1.6 1004762
21:00+8в3696100 6.9 1002392